Weather History for Cheraw, SC

Change the Weather History Date:

Thursday, June 13, 2013

  Actual Average (KFLO) Record (KFLO)
Temperature  
Mean Temperature 84 °F 78 °F  
Max Temperature 95 °F 88 °F 99 °F (1958)
Min Temperature 73 °F 68 °F 54 °F (1966)
Degree Days  
Heating Degree Days 0 0  
Month to date heating degree days 0  
Since 1 June heating degree days 0  
Since 1 July heating degree days 2523  
Cooling Degree Days 19 13  
Month to date cooling degree days 152  
Year to date cooling degree days 459  
Since 1 June cooling degree days 152  
Growing Degree Days 34 (Base 50)    
Moisture  
Dew Point 69 °F    
Average Humidity 68    
Maximum Humidity 94    
Minimum Humidity 34    
Precipitation  
Precipitation 0.00 in 0.15 in 1.36 in (2010)
Month to date precipitation 2.03  
Year to date precipitation 17.39  
Sea Level Pressure  
Sea Level Pressure 29.78 in    
Wind  
Wind Speed - (North)    
Max Wind Speed -    
Max Gust Speed -    
Visibility 10 miles    
Events Thunderstorm    
T = Trace of Precipitation, MM = Missing Value Source: NWS Daily Summary

Daily Weather History Graph

Daily Weather History Graph

Search for Another Location

Airport:

Trip Planner

Search our weather history database for the weather conditions in past years. The results will help you decide how hot, cold, wet, or windy it might be!

Date:

Astronomy

Jun. 13, 2013 Rise Set
Actual Time 6:06 AM EDT 8:33 PM EDT
Civil Twilight 5:36 AM EDT 9:03 PM EDT
Nautical Twilight 5:00 AM EDT 9:39 PM EDT
Astronomical Twilight 4:20 AM EDT 10:20 PM EDT
Moon 10:32 AM EDT (6/13) 11:50 PM EDT (6/13)
Length of Visible Light 15h 26m
Length of Day
14h 27m
Waxing Crescent, 21% of the Moon is Illuminated
Jun 13
Waxing Crescent
Jun 16
First Quarter
Jun 23
Full
Jun 30
Last Quarter
Jul 8
New

Hourly Weather History & Observations

Time (EDT) Temp. Heat Index Dew Point Humidity Pressure Visibility Wind Dir Wind Speed Gust Speed Precip Events Conditions
12:15 AM 77.0 °F - 73.4 °F 89% 29.88 in 10.0 mi North - - N/A   Clear
12:35 AM 75.2 °F - 73.4 °F 94% 29.89 in 10.0 mi North - - N/A   Clear
12:55 AM 75.2 °F - 73.4 °F 94% 29.88 in 10.0 mi North - - N/A   Clear
1:15 AM 75.2 °F - 73.4 °F 94% 29.88 in 10.0 mi North - - N/A   Clear
1:35 AM 75.2 °F - 71.6 °F 89% 29.88 in 10.0 mi North - - N/A   Clear
1:55 AM 75.2 °F - 73.4 °F 94% 29.87 in 10.0 mi North - - N/A   Clear
2:15 AM 73.4 °F - 71.6 °F 94% 29.87 in 10.0 mi North - - N/A   Clear
2:35 AM 73.4 °F - 71.6 °F 94% 29.87 in 10.0 mi North - - N/A   Clear
2:55 AM 73.4 °F - 71.6 °F 94% 29.87 in 10.0 mi North - - N/A   Clear
3:15 AM 75.2 °F - 71.6 °F 89% 29.87 in 10.0 mi North - - N/A   Clear
3:35 AM 75.2 °F - 71.6 °F 89% 29.87 in 10.0 mi North - - N/A   Clear
3:55 AM 73.4 °F - 71.6 °F 94% 29.87 in 10.0 mi North - - N/A   Clear
4:15 AM 73.4 °F - 71.6 °F 94% 29.86 in 10.0 mi North - - N/A   Clear
4:35 AM 75.2 °F - 71.6 °F 89% 29.86 in 10.0 mi North - - N/A   Clear
4:55 AM 75.2 °F - 71.6 °F 89% 29.85 in 10.0 mi North - - N/A   Clear
5:15 AM 75.2 °F - 71.6 °F 89% 29.85 in 10.0 mi North - - N/A   Clear
5:35 AM 75.2 °F - 71.6 °F 89% 29.85 in 10.0 mi North - - N/A   Clear
5:55 AM 73.4 °F - 71.6 °F 94% 29.85 in 10.0 mi North - - N/A   Clear
6:15 AM 73.4 °F - 71.6 °F 94% 29.85 in 10.0 mi North - - N/A   Clear
6:35 AM 73.4 °F - 71.6 °F 94% 29.84 in 10.0 mi North - - N/A   Clear
6:55 AM 73.4 °F - 71.6 °F 94% 29.83 in 10.0 mi North - - N/A   Clear
7:15 AM 75.2 °F - 73.4 °F 94% 29.83 in 10.0 mi North - - N/A   Clear
7:35 AM 77.0 °F - 73.4 °F 89% 29.82 in 10.0 mi North - - N/A   Clear
7:55 AM 78.8 °F - 73.4 °F 83% 29.82 in 10.0 mi North - - N/A   Clear
8:15 AM 80.6 °F 85.4 °F 73.4 °F 79% 29.82 in 10.0 mi North - - N/A   Clear
8:35 AM 80.6 °F 85.4 °F 73.4 °F 79% 29.82 in 10.0 mi North - - N/A   Clear
8:55 AM 82.4 °F 88.2 °F 73.4 °F 74% 29.82 in 10.0 mi North - - N/A   Clear
9:15 AM 84.2 °F 90.9 °F 73.4 °F 70% 29.81 in 10.0 mi North - - N/A   Clear
9:35 AM 84.2 °F 90.9 °F 73.4 °F 70% 29.81 in 10.0 mi North - - N/A   Clear
9:55 AM 86.0 °F 93.4 °F 73.4 °F 66% 29.81 in 10.0 mi North - - N/A   Clear
10:15 AM 86.0 °F 93.4 °F 73.4 °F 66% 29.81 in 10.0 mi North - - N/A   Clear
10:35 AM 86.0 °F 93.4 °F 73.4 °F 66% 29.81 in 10.0 mi North - - N/A   Clear
10:55 AM 87.8 °F 95.6 °F 73.4 °F 62% 29.80 in 10.0 mi North - - N/A   Clear
11:15 AM 89.6 °F 96.2 °F 71.6 °F 55% 29.80 in 10.0 mi North - - N/A   Clear
11:35 AM 89.6 °F 94.7 °F 69.8 °F 52% 29.79 in 10.0 mi North - - N/A   Clear
11:55 AM 89.6 °F 94.7 °F 69.8 °F 52% 29.79 in 10.0 mi North - - N/A   Clear
12:15 PM 91.4 °F 95.4 °F 68.0 °F 46% 29.78 in 10.0 mi North - - N/A   Clear
12:35 PM 91.4 °F 95.4 °F 68.0 °F 46% 29.77 in 10.0 mi North - - N/A   Clear
12:55 PM 93.2 °F 97.7 °F 68.0 °F 44% 29.76 in 10.0 mi North - - N/A   Scattered Clouds
1:15 PM 93.2 °F 96.2 °F 66.2 °F 41% 29.76 in 10.0 mi North - - N/A   Scattered Clouds
1:35 PM 93.2 °F 94.9 °F 64.4 °F 38% 29.74 in 10.0 mi North - - N/A   Scattered Clouds
1:55 PM 95.0 °F 98.5 °F 66.2 °F 39% 29.73 in 10.0 mi North - - N/A   Partly Cloudy
2:15 PM 95.0 °F 97.0 °F 64.4 °F 36% 29.72 in 10.0 mi North - - N/A   Clear
2:35 PM 95.0 °F 97.0 °F 64.4 °F 36% 29.72 in 10.0 mi North - - N/A   Clear
2:55 PM 95.0 °F 97.0 °F 64.4 °F 36% 29.71 in 10.0 mi North - - N/A   Clear
3:15 PM 95.0 °F 96.0 °F 62.6 °F 34% 29.71 in 10.0 mi North - - N/A   Clear
3:35 PM 95.0 °F 97.0 °F 64.4 °F 36% 29.70 in 10.0 mi North - - N/A   Clear
3:55 PM 95.0 °F 97.0 °F 64.4 °F 36% 29.69 in 10.0 mi North - - N/A   Clear
4:15 PM 95.0 °F 97.0 °F 64.4 °F 36% 29.69 in 10.0 mi North - - N/A   Clear
4:35 PM 95.0 °F 97.0 °F 64.4 °F 36% 29.67 in 10.0 mi North - - N/A   Clear
4:55 PM 93.2 °F 94.9 °F 64.4 °F 38% 29.68 in 10.0 mi North - - N/A   Clear
5:15 PM 93.2 °F 96.2 °F 66.2 °F 41% 29.68 in 10.0 mi North - - N/A   Clear
5:35 PM 93.2 °F 96.2 °F 66.2 °F 41% 29.68 in 10.0 mi North - - N/A   Clear
5:55 PM 91.4 °F 94.0 °F 66.2 °F 43% 29.68 in 10.0 mi North - - N/A   Clear
6:15 PM 91.4 °F 94.0 °F 66.2 °F 43% 29.69 in 10.0 mi North - - N/A   Clear
6:35 PM 89.6 °F 92.2 °F 66.2 °F 46% 29.69 in 10.0 mi North - - N/A   Clear
6:55 PM 86.0 °F 87.3 °F 64.4 °F 48% 29.72 in 10.0 mi North - - N/A Thunderstorm Scattered Clouds
7:15 PM 80.6 °F 81.1 °F 59.0 °F 48% 29.74 in 10.0 mi North - - N/A Thunderstorm Mostly Cloudy
7:35 PM 78.8 °F - 60.8 °F 54% 29.68 in 10.0 mi North - - N/A   Scattered Clouds
7:55 PM 77.0 °F - 62.6 °F 61% 29.71 in 10.0 mi North - - N/A   Clear
8:15 PM 77.0 °F - 62.6 °F 61% 29.71 in 10.0 mi North - - N/A   Partly Cloudy
8:35 PM 77.0 °F - 62.6 °F 61% 29.71 in 10.0 mi North - - N/A   Partly Cloudy
8:55 PM 75.2 °F - 64.4 °F 69% 29.71 in 10.0 mi North - - N/A Thunderstorm Scattered Clouds
9:15 PM 75.2 °F - 64.4 °F 69% 29.72 in 10.0 mi North - - N/A Thunderstorm Scattered Clouds
9:35 PM 75.2 °F - 64.4 °F 69% 29.73 in 10.0 mi North - - N/A Thunderstorm Mostly Cloudy
9:55 PM 75.2 °F - 66.2 °F 73% 29.72 in 10.0 mi North - - N/A Thunderstorm Scattered Clouds
10:15 PM 73.4 °F - 66.2 °F 78% 29.74 in 10.0 mi North - - N/A   Clear
10:35 PM 73.4 °F - 66.2 °F 78% 29.74 in 10.0 mi North - - N/A   Scattered Clouds
10:55 PM 73.4 °F - 68.0 °F 83% 29.75 in 10.0 mi North - - N/A   Scattered Clouds
11:15 PM 73.4 °F - 68.0 °F 83% 29.75 in 10.0 mi North - - N/A   Mostly Cloudy
11:35 PM 73.4 °F - 68.0 °F 83% 29.75 in 10.0 mi North - - N/A   Mostly Cloudy
11:55 PM 73.4 °F - 68.0 °F 83% 29.75 in 10.0 mi North - - N/A   Mostly Cloudy